Location: Artiguedieu
(43.5000°N, 0.5454°E)
Time: 10:27:30
(UTC+00:00)

Vanguard 1 Rocket - Pass Details

Date: 30 July 2021
Orbit: 650 x 4226 km, 34.3° (Epoch: 24 September)

Event Time Altitude Azimuth Distance (km) Brightness Sun altitude
Rises 09:05:56 0° 220° (SW) 8,258 12.1 45.0°
Reaches altitude 10° 09:12:52 10° 213° (SSW) 6,895 11.9 46.2°
Maximum altitude 09:30:23 35° 157° (SSE) 3,741 11.6 49.1°
Drops below altitude 10° 09:40:50 10° 98° (E) 4,166 11.6 50.8°
Sets 09:43:47 0° 88° (E) 4,771 11.6 51.3°
